timestamp,surface_pressure_avg,surface_temp_avg,battery_voltage,lat,long
2019-03-11 00:00:00+00:00,295.3781,-0.9,12.97,47.84626,-54.09684
2019-03-11 00:10:00+00:00,303.5413,-0.9,12.89,47.84626,-54.09684
2019-03-11 00:20:00+00:00,311.128,-0.91,12.97,47.84626,-54.09684
2019-03-11 00:30:00+00:00,317.8946,-0.95,12.97,47.84626,-54.09684
2019-03-11 00:40:00+00:00,323.5013,-1.0,12.97,47.84626,-54.09684
2019-03-11 00:50:00+00:00,331.3696,-1.0,12.97,47.84626,-54.09684
2019-03-11 01:00:00+00:00,335.2145,-1.0,12.89,47.84626,-54.09684
2019-03-11 01:10:00+00:00,335.7263,-1.04,12.81,47.84626,-54.09684
2019-03-11 01:20:00+00:00,340.1481,-1.07,12.89,47.84626,-54.09684
2019-03-11 01:30:00+00:00,344.9696,-1.1,12.89,47.84626,-54.09684
2019-03-11 01:40:00+00:00,343.5812,-1.1,12.97,47.84626,-54.09684
2019-03-11 01:50:00+00:00,340.0698,-1.1,12.97,47.84626,-54.09684
2019-03-11 02:00:00+00:00,340.8963,-1.1,12.89,47.84626,-54.09684
2019-03-11 02:10:00+00:00,347.7295,-1.09,12.81,47.84626,-54.09684
2019-03-11 02:20:00+00:00,345.7164,-1.06,12.89,47.84626,-54.09684
2019-03-11 02:30:00+00:00,347.0096,-1.04,12.89,47.84626,-54.09684
2019-03-11 02:40:00+00:00,353.2645,-1.04,12.89,47.84626,-54.09684
2019-03-11 02:50:00+00:00,351.2479,-1.08,12.89,47.84626,-54.09684
2019-03-11 03:00:00+00:00,345.2029,-1.1,12.81,47.84626,-54.09684
2019-03-11 03:10:00+00:00,344.553,-1.07,12.73,47.84626,-54.09684
2019-03-11 03:20:00+00:00,342.6113,-1.07,12.89,47.84626,-54.09684
2019-03-11 03:30:00+00:00,329.903,-1.1,12.89,47.84626,-54.09684
2019-03-11 03:40:00+00:00,327.7964,-1.07,12.89,47.84626,-54.09684
2019-03-11 03:50:00+00:00,331.2495,-1.04,12.89,47.84626,-54.09684
2019-03-11 04:00:00+00:00,326.183,-1.07,12.81,47.84626,-54.09684
2019-03-11 04:10:00+00:00,314.168,-1.08,12.73,47.84626,-54.09684
2019-03-11 04:20:00+00:00,312.8579,-1.06,12.81,47.84626,-54.09684
2019-03-11 04:30:00+00:00,316.1912,-1.07,12.81,47.84626,-54.09684
2019-03-11 04:40:00+00:00,310.0679,-1.1,12.89,47.84626,-54.09684
2019-03-11 04:50:00+00:00,299.8698,-1.1,12.89,47.84626,-54.09684
2019-03-11 05:00:00+00:00,297.1447,-1.1,12.81,47.84626,-54.09684
2019-03-11 05:10:00+00:00,289.748,-1.1,12.73,47.84626,-54.09684
2019-03-11 05:20:00+00:00,276.6448,-1.1,12.81,47.84626,-54.09684
2019-03-11 05:30:00+00:00,271.1596,-1.1,12.81,47.84626,-54.09684
2019-03-11 05:40:00+00:00,265.2597,-1.1,12.81,47.84626,-54.09684
2019-03-11 05:50:00+00:00,255.9097,-1.1,12.81,47.84626,-54.09684
2019-03-11 06:00:00+00:00,247.9864,-1.2,12.73,47.84626,-54.09684
2019-03-11 06:10:00+00:00,240.6064,-1.2,12.65,47.84626,-54.09684
2019-03-11 06:20:00+00:00,228.5997,-1.2,12.73,47.84626,-54.09684
2019-03-11 06:30:00+00:00,220.5448,-1.22,12.73,47.84626,-54.09684
2019-03-11 06:40:00+00:00,217.7914,-1.21,12.81,47.84626,-54.09684
2019-03-11 06:50:00+00:00,207.4414,-1.21,12.81,47.84626,-54.09684
2019-03-11 07:00:00+00:00,199.8148,-1.27,12.73,47.84626,-54.09684
2019-03-11 07:10:00+00:00,202.9764,-1.23,12.65,47.84626,-54.09684
2019-03-11 07:20:00+00:00,199.0448,-1.2,12.73,47.84626,-54.09684
2019-03-11 07:30:00+00:00,185.4298,-1.26,12.73,47.84626,-54.09684
2019-03-11 07:40:00+00:00,183.3464,-1.3,12.73,47.84626,-54.09684
2019-03-11 07:50:00+00:00,182.9598,-1.27,12.73,47.84626,-54.09684
2019-03-11 08:00:00+00:00,173.8831,-1.29,12.65,47.84626,-54.09684
2019-03-11 08:10:00+00:00,173.1065,-1.3,12.65,47.84626,-54.09684
2019-03-11 08:20:00+00:00,173.7599,-1.27,12.73,47.84626,-54.09684
2019-03-11 08:30:00+00:00,174.0331,-1.21,12.73,47.84626,-54.09684
2019-03-11 08:40:00+00:00,175.9299,-1.2,12.73,47.84626,-54.09684
2019-03-11 08:50:00+00:00,175.5397,-1.2,12.73,47.84626,-54.09684
2019-03-11 09:00:00+00:00,176.4465,-1.2,12.65,47.84626,-54.09684
2019-03-11 09:10:00+00:00,181.1698,-1.2,12.65,47.84626,-54.09684
2019-03-11 09:20:00+00:00,187.0681,-1.2,12.73,47.84626,-54.09684
2019-03-11 09:30:00+00:00,193.3515,-1.2,12.73,47.84626,-54.09684
2019-03-11 09:40:00+00:00,203.4815,-1.2,12.73,47.84626,-54.09684
2019-03-11 09:50:00+00:00,204.5998,-1.2,12.73,47.84626,-54.09684
2019-03-11 10:00:00+00:00,204.0764,-1.2,12.65,47.84626,-54.09684
2019-03-11 10:10:00+00:00,211.5798,-1.2,12.65,47.84626,-54.09684
2019-03-11 10:20:00+00:00,216.2348,-1.2,12.73,47.84626,-54.09684
2019-03-11 10:30:00+00:00,214.7115,-1.17,12.73,47.84626,-54.09684
2019-03-11 10:40:00+00:00,221.9598,-1.15,12.81,47.84626,-54.09684
2019-03-11 10:50:00+00:00,233.9081,-1.12,12.81,47.84626,-54.09684
2019-03-11 11:00:00+00:00,241.3015,-1.1,12.73,47.84626,-54.09684
2019-03-11 11:10:00+00:00,241.5247,-1.1,12.73,47.84626,-54.09684
2019-03-11 11:20:00+00:00,248.0381,-1.1,12.81,47.84626,-54.09684
2019-03-11 11:30:00+00:00,259.8199,-1.1,12.89,47.84626,-54.09684
2019-03-11 11:40:00+00:00,257.1098,-1.1,13.05,47.84626,-54.09684
2019-03-11 11:50:00+00:00,252.8615,-1.11,13.29,47.84626,-54.09684
2019-03-11 12:00:00+00:00,261.5247,-1.13,13.44,47.84626,-54.09684
2019-03-11 12:10:00+00:00,268.6131,-1.14,13.44,47.84626,-54.09684
2019-03-11 12:20:00+00:00,272.5948,-1.13,13.53,47.84626,-54.09684
2019-03-11 12:30:00+00:00,280.3098,-1.16,13.53,47.84626,-54.09684
2019-03-11 12:40:00+00:00,288.7331,-1.14,13.6,47.84626,-54.09684
2019-03-11 12:50:00+00:00,298.0963,-1.12,13.68,47.84626,-54.09684
2019-03-11 13:00:00+00:00,305.1481,-1.11,13.6,47.84626,-54.09684
2019-03-11 13:10:00+00:00,311.3147,-1.11,13.6,47.84626,-54.09684
2019-03-11 13:20:00+00:00,312.5913,-1.1,13.68,47.84626,-54.09684
2019-03-11 13:30:00+00:00,318.5963,-1.1,13.76,47.84626,-54.09684
2019-03-11 13:40:00+00:00,316.1113,-1.1,13.76,47.84626,-54.09684
2019-03-11 13:50:00+00:00,312.948,-1.1,13.84,47.84626,-54.09684
2019-03-11 14:00:00+00:00,318.6313,-1.1,13.84,47.84626,-54.09684
2019-03-11 14:10:00+00:00,326.0496,-1.1,13.68,47.84626,-54.09684
2019-03-11 14:20:00+00:00,328.5247,-1.1,13.84,47.84626,-54.09684
2019-03-11 14:30:00+00:00,323.5647,-1.1,13.92,47.84626,-54.09684
2019-03-11 14:40:00+00:00,318.5779,-1.09,14.08,47.84626,-54.09684
2019-03-11 14:50:00+00:00,320.3197,-1.08,14.16,47.84626,-54.09684
2019-03-11 15:00:00+00:00,323.7347,-1.09,14.08,47.84626,-54.09684
2019-03-11 15:10:00+00:00,316.4247,-1.07,14.08,47.84626,-54.09684
2019-03-11 15:20:00+00:00,313.233,-1.06,14.32,47.84626,-54.09684
2019-03-11 15:30:00+00:00,316.2364,-1.1,14.4,47.84626,-54.09684
2019-03-11 15:40:00+00:00,318.1564,-1.1,14.56,47.84626,-54.09684
2019-03-11 15:50:00+00:00,312.2181,-1.01,14.8,47.84626,-54.09684
2019-03-11 16:00:00+00:00,309.798,-1.0,14.72,47.84626,-54.09684
2019-03-11 16:10:00+00:00,306.3831,-1.0,14.72,47.84626,-54.09684
2019-03-11 16:20:00+00:00,302.2614,-0.95,14.88,47.84626,-54.09684
2019-03-11 16:30:00+00:00,296.8864,-0.92,14.72,47.84626,-54.09684
2019-03-11 16:40:00+00:00,287.6164,-0.92,14.72,47.84626,-54.09684
2019-03-11 16:50:00+00:00,276.2698,-0.9,14.64,47.84626,-54.09684
2019-03-11 17:00:00+00:00,263.868,-0.92,14.48,47.84626,-54.09684
2019-03-11 17:10:00+00:00,257.9664,-0.91,14.4,47.84626,-54.09684
2019-03-11 17:20:00+00:00,258.0764,-0.94,14.4,47.84626,-54.09684
2019-03-11 17:30:00+00:00,257.743,-0.98,14.4,47.84626,-54.09684
2019-03-11 17:40:00+00:00,252.2281,-0.92,14.4,47.84626,-54.09684
2019-03-11 17:50:00+00:00,245.2098,-0.94,14.4,47.84626,-54.09684
2019-03-11 18:00:00+00:00,237.2548,-0.99,14.32,47.84626,-54.09684
2019-03-11 18:10:00+00:00,235.6264,-1.0,14.32,47.84626,-54.09684
2019-03-11 18:20:00+00:00,235.4915,-1.0,14.4,47.84626,-54.09684
2019-03-11 18:30:00+00:00,223.5497,-0.97,14.48,47.84626,-54.09684
2019-03-11 18:40:00+00:00,202.0381,-0.91,14.48,47.84626,-54.09684
2019-03-11 18:50:00+00:00,193.5881,-0.9,14.48,47.84626,-54.09684
2019-03-11 19:00:00+00:00,192.5515,-0.9,14.4,47.84626,-54.09684
2019-03-11 19:10:00+00:00,188.2931,-0.9,14.24,47.84626,-54.09684
2019-03-11 19:20:00+00:00,189.9781,-0.87,14.24,47.84626,-54.09684
2019-03-11 19:30:00+00:00,188.6165,-0.8,14.08,47.84626,-54.09684
2019-03-11 19:40:00+00:00,184.5298,-0.8,14.08,47.84626,-54.09684
2019-03-11 19:50:00+00:00,187.8498,-0.8,14.0,47.84626,-54.09684
2019-03-11 20:00:00+00:00,188.3265,-0.71,13.84,47.84626,-54.09684
2019-03-11 20:10:00+00:00,185.4931,-0.7,13.68,47.84626,-54.09684
2019-03-11 20:20:00+00:00,178.6281,-0.7,13.68,47.84626,-54.09684
2019-03-11 20:30:00+00:00,179.8931,-0.7,13.6,47.84626,-54.09684
2019-03-11 20:40:00+00:00,185.1165,-0.7,13.6,47.84626,-54.09684
2019-03-11 20:50:00+00:00,187.0815,-0.7,13.53,47.84626,-54.09684
2019-03-11 21:00:00+00:00,192.1631,-0.72,13.44,47.84626,-54.09684
2019-03-11 21:10:00+00:00,202.8631,-0.8,13.29,47.84626,-54.09684
2019-03-11 21:20:00+00:00,210.5014,-0.8,13.29,47.84626,-54.09684
2019-03-11 21:30:00+00:00,206.4848,-0.8,13.21,47.84626,-54.09684
2019-03-11 21:40:00+00:00,210.8348,-0.8,13.21,47.84626,-54.09684
2019-03-11 21:50:00+00:00,222.2781,-0.8,13.21,47.84626,-54.09684
2019-03-11 22:00:00+00:00,221.1465,-0.85,13.05,47.84626,-54.09684
2019-03-11 22:10:00+00:00,223.9948,-0.85,12.97,47.84626,-54.09684
2019-03-11 22:20:00+00:00,238.1581,-0.84,12.97,47.84626,-54.09684
2019-03-11 22:30:00+00:00,241.2197,-0.9,12.97,47.84626,-54.09684
2019-03-11 22:40:00+00:00,242.8031,-0.9,12.97,47.84626,-54.09684
2019-03-11 22:50:00+00:00,246.6181,-0.9,12.97,47.84626,-54.09684
2019-03-11 23:00:00+00:00,246.8131,-0.9,12.97,47.84626,-54.09684
2019-03-11 23:10:00+00:00,246.4981,-0.9,12.81,47.84626,-54.09684
2019-03-11 23:20:00+00:00,253.3315,-0.9,12.97,47.84626,-54.09684
2019-03-11 23:30:00+00:00,256.4214,-0.9,12.97,47.84626,-54.09684
2019-03-11 23:40:00+00:00,254.3164,-0.92,12.97,47.84626,-54.09684
2019-03-11 23:50:00+00:00,255.518,-0.92,12.97,47.84626,-54.09684
